Location: Newark
(49.5647°N, 8.2922°E)
Time: 18:26:58
(UTC+00:00)

A-11 Canister half - All Passes

Search period start: 28 February 2020 00:00
Search period end: 09 March 2020 00:00
Orbit: 1524 x 1684 km, 47.3° (Epoch: 27 February)

Date Brightness Start Highest point End Pass type
(mag) Time Alt. Az. Time Alt. Az. Time Alt. Az.
28 Feb - 06:09:28 10° S 06:16:11 22° SE 06:22:47 10° E daylight
28 Feb - 08:10:27 10° SW 08:19:38 54° SSE 08:28:35 10° ENE daylight
28 Feb - 10:14:41 10° W 10:24:08 78° S 10:33:26 10° E daylight
28 Feb - 12:19:37 10° W 12:28:51 66° SSW 12:38:01 10° ESE daylight
28 Feb - 14:24:50 10° W 14:32:42 32° SW 14:40:37 10° SSE daylight
29 Feb - 05:48:08 10° S 05:54:39 21° SE 06:01:01 10° E daylight
29 Feb - 07:48:52 10° SW 07:58:02 52° SSE 08:06:58 10° ENE daylight
29 Feb - 09:53:02 10° WSW 10:02:31 78° S 10:11:48 10° E daylight
29 Feb - 11:57:59 10° W 12:07:15 68° SSW 12:16:25 10° ESE daylight
29 Feb - 14:03:08 10° W 14:11:09 34° SW 14:19:09 10° SSE daylight
01 Mar - 05:26:50 10° S 05:33:06 20° SE 05:39:15 10° E visible
01 Mar - 07:27:18 10° SW 07:36:26 51° SSE 07:45:20 10° ENE daylight
01 Mar - 09:31:23 10° WSW 09:40:54 77° S 09:50:11 10° E daylight
01 Mar - 11:36:20 10° W 11:45:38 69° SSW 11:54:49 10° ESE daylight
01 Mar - 13:41:28 10° W 13:49:35 35° SW 13:57:42 10° SSE daylight
02 Mar - 05:05:33 10° SSE 05:11:33 18° SE 05:17:27 10° E visible
02 Mar - 07:05:44 10° SW 07:14:50 49° SSE 07:23:42 10° ENE daylight
02 Mar - 09:09:45 10° WSW 09:19:15 77° S 09:28:34 10° E daylight
02 Mar - 11:14:41 10° W 11:24:01 70° SSW 11:33:13 10° ESE daylight
02 Mar - 13:19:48 10° W 13:28:02 37° SW 13:36:14 10° SSE daylight
03 Mar - 04:44:18 10° SSE 04:50:01 17° SE 04:55:38 10° E visible
03 Mar - 06:44:10 10° SW 06:53:15 48° SSE 07:02:04 10° ENE daylight
03 Mar - 08:48:05 10° WSW 08:57:38 76° S 09:06:56 10° E daylight
03 Mar - 10:53:02 10° W 11:02:24 71° SSW 11:11:37 10° ESE daylight
03 Mar - 12:58:08 10° WNW 13:06:28 38° SW 13:14:45 10° SSE daylight
03 Mar - 15:07:12 10° WSW 15:09:13 11° WSW 15:11:14 10° SW daylight
04 Mar - 04:23:05 10° SSE 04:28:29 16° SE 04:33:47 10° E visible
04 Mar - 06:22:36 10° SW 06:31:39 46° SSE 06:40:27 10° ENE daylight
04 Mar - 08:26:26 10° WSW 08:36:01 76° S 08:45:19 10° E daylight
04 Mar - 10:31:23 10° W 10:40:47 72° SSW 10:50:01 10° ESE daylight
04 Mar - 12:36:28 10° WNW 12:44:53 40° SW 12:53:16 10° SSE daylight
04 Mar - 14:44:46 10° WSW 14:47:42 12° WSW 14:50:38 10° SW daylight
05 Mar - 04:01:54 10° SSE 04:06:56 15° SE 04:11:54 10° E visible
05 Mar - 06:01:03 10° SW 06:10:04 45° SE 06:18:48 10° ENE daylight
05 Mar - 08:04:48 10° WSW 08:14:22 75° S 08:23:42 10° E daylight
05 Mar - 10:09:44 10° W 10:19:10 73° SSW 10:28:25 10° ESE daylight
05 Mar - 12:14:48 10° WNW 12:23:19 41° SW 12:31:46 10° SSE daylight
05 Mar - 14:22:36 10° W 14:26:11 13° SW 14:29:47 10° SSW daylight
06 Mar - 03:40:46 10° SSE 03:45:24 14° SE 03:49:58 10° E visible
06 Mar - 05:39:30 10° SSW 05:48:28 43° SE 05:57:10 10° ENE daylight
06 Mar - 07:43:09 10° WSW 07:52:45 74° SSE 08:02:04 10° E daylight
06 Mar - 09:48:05 10° W 09:57:33 74° SSW 10:06:48 10° ESE daylight
06 Mar - 11:53:08 10° WNW 12:01:45 43° SW 12:10:16 10° SSE daylight
06 Mar - 14:00:32 10° W 14:04:41 14° SW 14:08:49 10° SSW daylight
07 Mar - 03:19:42 10° SSE 03:23:52 13° SE 03:27:59 10° E visible
07 Mar - 05:17:57 10° SSW 05:26:52 42° SE 05:35:32 10° ENE visible
07 Mar - 07:21:29 10° WSW 07:31:07 73° SSE 07:40:27 10° E daylight
07 Mar - 09:26:25 10° W 09:35:56 75° S 09:45:12 10° ESE daylight
07 Mar - 11:31:29 10° WNW 11:40:11 44° SW 11:48:46 10° SE daylight
07 Mar - 13:38:33 10° W 13:43:09 15° SW 13:47:45 10° SSW daylight
08 Mar - 02:58:44 10° SE 03:02:20 13° ESE 03:05:54 10° ESE visible
08 Mar - 04:56:26 10° SSW 05:05:17 40° SE 05:13:53 10° ENE visible
08 Mar - 06:59:51 10° WSW 07:09:29 72° SSE 07:18:49 10° E daylight
08 Mar - 09:04:46 10° W 09:14:18 76° S 09:23:35 10° ESE daylight
08 Mar - 11:09:49 10° WNW 11:18:36 46° SSW 11:27:15 10° SE daylight
08 Mar - 13:16:38 10° W 13:21:38 16° SW 13:26:38 10° SSW daylight
